Regional Weather Roundup
Issued by NWS

Home | Current Version | Previous Version | Graphics & Text | Print | Product List | Glossary On
Versions: 1 2 3 4 5 6 7 8 9 10 11 12 13 14 15 16 17 18 19 20 21 22 23 24 25 26 27 28 29 30 31 32 33 34 35 36 37 38 39 40 41 42 43 44 45 46 47 48 49 50
000
ASUS43 KLMK 040302
RWRKY
KENTUCKY REGIONAL WEATHER ROUNDUP
NATIONAL WEATHER SERVICE LOUISVILLE KY
1100 PM EDT THU SEP 03 2015

NOTE "FAIR" INDICATES FEW OR NO CLOUDS BELOW 12,000 FEET
WITH NO SIGNIFICANT WEATHER AND/OR OBSTRUCTIONS TO VISIBILITY.

KYZ001>023-026-027-061>063-070>075-040400-
WESTERN AND SOUTH CENTRAL KENTUCKY

CITY           SKY/WX    TMP DP  RH WIND       PRES   REMARKS
PADUCAH        CLEAR     73  69  87 CALM      29.96R
HENDERSON      CLEAR     72  66  83 CALM      29.96R
OWENSBORO      CLEAR     77  70  79 CALM      29.97R
HOPKINSVILLE   CLEAR     77  68  73 CALM      29.97R
BOWLING GREEN  CLEAR     74  72  93 CALM      29.98R
GLASGOW        CLEAR     71  71 100 CALM      29.99R
$$

KYZ024-025-028>034-038-045-046-053-040400-
NORTH CENTRAL KENTUCKY

CITY           SKY/WX    TMP DP  RH WIND       PRES   REMARKS
LOUISVILLE/SDF CLEAR     82  68  62 S3        29.96R
LOUISVILLE/LOU CLEAR     74  67  78 CALM      29.97S
FORT KNOX      CLEAR     72  68  86 CALM      29.97R
$$

KYZ035>037-039>044-047>052-055>060-089>105-040400-
NORTHEAST KENTUCKY

CITY           SKY/WX    TMP DP  RH WIND       PRES   REMARKS
LEXINGTON      CLEAR     78  67  68 CALM      30.00R
COVINGTON      CLEAR     76  66  71 CALM      29.98R
FRANKFORT      CLEAR     73  66  78 CALM      29.98R
$$

KYZ054-064>069-076>088-106>120-040400-
SOUTHEAST KENTUCKY

CITY           SKY/WX    TMP DP  RH WIND       PRES   REMARKS
JACKSON        CLEAR     75  66  73 E3        30.03R
LONDON         CLEAR     73  66  78 CALM      30.02R HAZE
SOMERSET       NOT AVBL
MIDDLESBORO    CLEAR     70  67  90 CALM      30.03S
MONTICELLO     CLEAR     68  68 100 CALM      30.03R
$$




USA.gov is the U.S. government's official web portal to all federal, state and local government web resources and services.